| time (UTC) | temp F | wind direction | speed knots | gust knots | rain 1hr in | rain 24hr in | rain mn in | humidity % | barometer mb |
| 20260505040146 | 54 | 90 | 14.8 | 19.1 | 0.00 | 0.00 | 0.00 | 45 | 1013.9 |
| 20260505035648 | 54 | 78 | 14.8 | 20.9 | 0.00 | 0.00 | 0.00 | 45 | 1013.9 |
| 20260505035146 | 55 | 44 | 15.6 | 21.7 | 0.00 | 0.00 | 0.00 | 45 | 1013.8 |
| 20260505034644 | 55 | 74 | 14.8 | 21.7 | 0.00 | 0.00 | 0.00 | 45 | 1013.9 |
| 20260505034144 | 55 | 106 | 13.0 | 18.2 | 0.00 | 0.00 | 0.00 | 45 | 1013.7 |
| 20260505033644 | 55 | 113 | 12.2 | 18.2 | 0.00 | 0.00 | 0.00 | 44 | 1013.6 |
| 20260505033144 | 55 | 37 | 11.3 | 18.2 | 0.00 | 0.00 | 0.00 | 44 | 1013.6 |
| 20260505032643 | 55 | 95 | 11.3 | 17.4 | 0.00 | 0.00 | 0.00 | 46 | 1013.6 |
| 20260505032144 | 55 | 70 | 12.2 | 17.4 | 0.00 | 0.00 | 0.00 | 43 | 1013.6 |
| 20260505031644 | 55 | 74 | 13.0 | 18.2 | 0.00 | 0.00 | 0.00 | 44 | 1013.6 |
| 20260505031144 | 55 | 67 | 13.0 | 18.2 | 0.00 | 0.00 | 0.00 | 45 | 1013.4 |
| 20260505030646 | 55 | 66 | 11.3 | 18.2 | 0.00 | 0.00 | 0.00 | 46 | 1013.6 |
| 20260505025644 | 56 | 80 | 10.4 | 16.5 | 0.00 | 0.00 | 0.00 | 45 | 1013.3 |
| 20260505025145 | 56 | 78 | 10.4 | 16.5 | 0.00 | 0.00 | 0.00 | 44 | 1013.3 |
| 20260505024644 | 56 | 73 | 10.4 | 18.2 | 0.00 | 0.00 | 0.00 | 43 | 1013.3 |
| 20260505024144 | 56 | 84 | 11.3 | 18.2 | 0.00 | 0.00 | 0.00 | 46 | 1013.3 |
| 20260505023645 | 56 | 86 | 12.2 | 18.2 | 0.00 | 0.00 | 0.00 | 44 | 1013.3 |
| 20260505023143 | 56 | 59 | 13.9 | 19.1 | 0.00 | 0.00 | 0.00 | 45 | 1013.3 |
| 20260505022645 | 56 | 86 | 13.0 | 19.1 | 0.00 | 0.00 | 0.00 | 43 | 1013.4 |
| 20260505022143 | 56 | 69 | 12.2 | 17.4 | 0.00 | 0.00 | 0.00 | 45 | 1013.4 |
| 20260505021143 | 56 | 71 | 11.3 | 14.8 | 0.00 | 0.00 | 0.00 | 48 | 1013.2 |
| 20260505020144 | 56 | 76 | 11.3 | 20.0 | 0.00 | 0.00 | 0.00 | 47 | 1013.3 |
| 20260505015644 | 57 | 60 | 11.3 | 20.0 | 0.00 | 0.00 | 0.00 | 44 | 1013.3 |
| 20260505015145 | 57 | 96 | 11.3 | 18.2 | 0.00 | 0.00 | 0.00 | 46 | 1013.3 |
| 20260505014644 | 57 | 80 | 11.3 | 17.4 | 0.00 | 0.00 | 0.00 | 45 | 1013.4 |
| 20260505014144 | 57 | 78 | 10.4 | 17.4 | 0.00 | 0.00 | 0.00 | 44 | 1013.2 |
| 20260505013644 | 57 | 76 | 10.4 | 20.0 | 0.00 | 0.00 | 0.00 | 45 | 1013.2 |
| 20260505012640 | 57 | 88 | 12.2 | 17.4 | 0.00 | 0.00 | 0.00 | 46 | 1013.1 |
| 20260505012141 | 58 | 80 | 12.2 | 17.4 | 0.00 | 0.00 | 0.00 | 45 | 1013.1 |
| 20260505011639 | 58 | 95 | 11.3 | 17.4 | 0.00 | 0.00 | 0.00 | 44 | 1013.2 |
| 20260505011140 | 58 | 50 | 10.4 | 14.8 | 0.00 | 0.00 | 0.00 | 45 | 1013.2 |
| 20260505010640 | 58 | 77 | 9.6 | 17.4 | 0.00 | 0.00 | 0.00 | 44 | 1013.2 |
| 20260505010140 | 58 | 69 | 9.6 | 17.4 | 0.00 | 0.00 | 0.00 | 42 | 1013.0 |
| 20260505005639 | 59 | 44 | 10.4 | 16.5 | 0.00 | 0.00 | 0.00 | 44 | 1013.0 |
| 20260505005140 | 59 | 80 | 8.7 | 13.0 | 0.00 | 0.00 | 0.00 | 44 | 1013.0 |
| 20260505004636 | 59 | 70 | 8.7 | 13.0 | 0.00 | 0.00 | 0.00 | 44 | 1012.9 |
| 20260505004137 | 59 | 79 | 8.7 | 13.0 | 0.00 | 0.00 | 0.00 | 44 | 1012.9 |
| 20260505003635 | 59 | 114 | 9.6 | 14.8 | 0.00 | 0.00 | 0.00 | 45 | 1012.9 |
| 20260505003137 | 59 | 55 | 8.7 | 14.8 | 0.00 | 0.00 | 0.00 | 45 | 1013.1 |
| 20260505002637 | 60 | 82 | 7.0 | 12.2 | 0.00 | 0.00 | 0.00 | 44 | 1013.0 |
| 20260505002135 | 60 | 99 | 7.0 | 12.2 | 0.00 | 0.00 | 0.00 | 46 | 1013.0 |
| 20260505001136 | 60 | 89 | 7.0 | 12.2 | 0.00 | 0.00 | 0.00 | 44 | 1012.9 |
| 20260505000636 | 59 | 45 | 7.0 | 12.2 | 0.00 | 0.00 | 0.00 | 44 | 1012.9 |
| 20260505000130 | 59 | 105 | 7.8 | 12.2 | 0.00 | 0.00 | 0.00 | 43 | 1012.9 |
| 20260504234630 | 59 | 124 | 10.4 | 15.6 | 0.00 | 0.00 | 0.00 | 45 | 1012.9 |
| 20260504234130 | 59 | 86 | 9.6 | 15.6 | 0.00 | 0.00 | 0.00 | 44 | 1012.8 |
| 20260504233631 | 60 | 83 | 9.6 | 15.6 | 0.00 | 0.00 | 0.00 | 44 | 1012.9 |
| 20260504232632 | 60 | 46 | 11.3 | 20.0 | 0.00 | 0.00 | 0.00 | 44 | 1012.9 |
| 20260504232131 | 59 | 80 | 11.3 | 15.6 | 0.00 | 0.00 | 0.00 | 45 | 1012.9 |
| 20260504231631 | 60 | 22 | 12.2 | 19.1 | 0.00 | 0.00 | 0.00 | 46 | 1013.2 |
| 20260504231132 | 60 | 30 | 12.2 | 19.1 | 0.00 | 0.00 | 0.00 | 46 | 1013.1 |
| 20260504230631 | 60 | 60 | 11.3 | 19.1 | 0.00 | 0.00 | 0.00 | 46 | 1013.0 |
| 20260504230133 | 60 | 84 | 12.2 | 19.1 | 0.00 | 0.00 | 0.00 | 46 | 1013.1 |
| 20260504225632 | 60 | 13 | 12.2 | 18.2 | 0.00 | 0.00 | 0.00 | 44 | 1012.9 |
| 20260504225129 | 60 | 67 | 10.4 | 18.2 | 0.00 | 0.00 | 0.00 | 44 | 1012.7 |
| 20260504224629 | 60 | 44 | 11.3 | 19.1 | 0.00 | 0.00 | 0.00 | 45 | 1013.0 |
| 20260504224131 | 60 | 84 | 13.0 | 19.1 | 0.00 | 0.00 | 0.00 | 45 | 1013.1 |
| 20260504223629 | 60 | 200 | 13.0 | 19.1 | 0.00 | 0.00 | 0.00 | 43 | 1012.9 |
| 20260504223130 | 60 | 88 | 12.2 | 17.4 | 0.00 | 0.00 | 0.00 | 46 | 1012.9 |
| 20260504222629 | 60 | 11 | 11.3 | 16.5 | 0.00 | 0.00 | 0.00 | 45 | 1012.9 |
| 20260504222129 | 60 | 62 | 11.3 | 17.4 | 0.00 | 0.00 | 0.00 | 47 | 1013.0 |
| 20260504221630 | 60 | 112 | 10.4 | 17.4 | 0.00 | 0.00 | 0.00 | 43 | 1012.8 |
| 20260504221129 | 60 | 77 | 10.4 | 16.5 | 0.00 | 0.00 | 0.00 | 45 | 1013.1 |
| 20260504220117 | 60 | 91 | 10.4 | 15.6 | 0.00 | 0.00 | 0.00 | 45 | 1012.9 |
| 20260504215115 | 60 | 74 | 12.2 | 18.2 | 0.00 | 0.00 | 0.00 | 44 | 1012.9 |
| 20260504214116 | 62 | 75 | 9.6 | 14.8 | 0.00 | 0.00 | 0.00 | 42 | 1012.9 |
| 20260504213615 | 61 | 58 | 9.6 | 14.8 | 0.00 | 0.00 | 0.00 | 42 | 1012.8 |
| 20260504213115 | 61 | 67 | 7.8 | 13.9 | 0.00 | 0.00 | 0.00 | 41 | 1012.8 |
| 20260504212613 | 62 | 72 | 7.0 | 13.0 | 0.00 | 0.00 | 0.00 | 39 | 1012.7 |
| 20260504212112 | 62 | 79 | 7.0 | 13.0 | 0.00 | 0.00 | 0.00 | 41 | 1012.6 |
| 20260504211610 | 62 | 97 | 6.1 | 11.3 | 0.00 | 0.00 | 0.00 | 40 | 1012.7 |
| 20260504211107 | 62 | 70 | 5.2 | 10.4 | 0.00 | 0.00 | 0.00 | 40 | 1012.7 |
| 20260504210607 | 62 | 95 | 6.1 | 11.3 | 0.00 | 0.00 | 0.00 | 41 | 1012.7 |
| 20260504210106 | 62 | 18 | 7.8 | 11.3 | 0.00 | 0.00 | 0.00 | 43 | 1012.8 |
| 20260504205605 | 62 | 83 | 8.7 | 13.9 | 0.00 | 0.00 | 0.00 | 41 | 1012.7 |
| 20260504205105 | 62 | 86 | 7.8 | 13.9 | 0.00 | 0.00 | 0.00 | 41 | 1012.8 |
| 20260504204606 | 63 | 52 | 4.3 | 10.4 | 0.00 | 0.00 | 0.00 | 39 | 1012.9 |
| 20260504204105 | 63 | 69 | 2.6 | 7.0 | 0.00 | 0.00 | 0.00 | 38 | 1012.8 |
| 20260504203605 | 63 | 338 | 1.7 | 7.0 | 0.00 | 0.00 | 0.00 | 37 | 1012.7 |
| 20260504203102 | 63 | 38 | 3.5 | 7.8 | 0.00 | 0.00 | 0.00 | 40 | 1012.7 |
| 20260504202601 | 63 | 55 | 3.5 | 8.7 | 0.00 | 0.00 | 0.00 | 42 | 1012.7 |
| 20260504201601 | 62 | 72 | 6.1 | 9.6 | 0.00 | 0.00 | 0.00 | 42 | 1012.8 |
| 20260504201101 | 62 | 74 | 6.1 | 9.6 | 0.00 | 0.00 | 0.00 | 44 | 1012.9 |
| 20260504200601 | 62 | 51 | 4.3 | 9.6 | 0.00 | 0.00 | 0.00 | 42 | 1012.9 |
| 20260504200101 | 62 | 73 | 4.3 | 9.6 | 0.00 | 0.00 | 0.00 | 43 | 1012.8 |
| 20260504195601 | 62 | 140 | 5.2 | 10.4 | 0.00 | 0.00 | 0.00 | 42 | 1012.8 |
| 20260504194603 | 62 | 37 | 6.1 | 12.2 | 0.00 | 0.00 | 0.00 | 38 | 1012.9 |
| 20260504194101 | 64 | 70 | 4.3 | 7.8 | 0.00 | 0.00 | 0.00 | 43 | 1012.7 |
| 20260504193602 | 64 | 36 | 3.5 | 7.8 | 0.00 | 0.00 | 0.00 | 40 | 1012.8 |
| 20260504193102 | 64 | 317 | 4.3 | 10.4 | 0.00 | 0.00 | 0.00 | 40 | 1012.9 |
| 20260504192602 | 63 | 121 | 6.1 | 10.4 | 0.00 | 0.00 | 0.00 | 38 | 1012.8 |
| 20260504192101 | 63 | 82 | 6.1 | 11.3 | 0.00 | 0.00 | 0.00 | 39 | 1012.9 |
| 20260504191600 | 63 | 74 | 4.3 | 11.3 | 0.00 | 0.00 | 0.00 | 39 | 1013.1 |
| 20260504191103 | 64 | 86 | 3.5 | 9.6 | 0.00 | 0.00 | 0.00 | 39 | 1013.0 |
| 20260504190601 | 63 | 78 | 3.5 | 8.7 | 0.00 | 0.00 | 0.00 | 40 | 1013.0 |
| 20260504190105 | 63 | 109 | 4.3 | 8.7 | 0.00 | 0.00 | 0.00 | 41 | 1013.2 |
| 20260504185102 | 62 | 28 | 5.2 | 11.3 | 0.00 | 0.00 | 0.00 | 40 | 1013.2 |
| 20260504184600 | 62 | 48 | 3.5 | 9.6 | 0.00 | 0.00 | 0.00 | 40 | 1013.3 |
| 20260504184101 | 62 | 101 | 4.3 | 9.6 | 0.00 | 0.00 | 0.00 | 39 | 1013.2 |
| 20260504183102 | 61 | 67 | 7.0 | 11.3 | 0.00 | 0.00 | 0.00 | 41 | 1013.3 |
| 20260504182601 | 61 | 80 | 7.0 | 11.3 | 0.00 | 0.00 | 0.00 | 41 | 1013.4 |
| 20260504182101 | 61 | 103 | 7.8 | 13.0 | 0.00 | 0.00 | 0.00 | 43 | 1013.4 |
| 20260504181603 | 61 | 296 | 7.0 | 13.0 | 0.00 | 0.00 | 0.00 | 44 | 1013.4 |
| 20260504181102 | 61 | 74 | 6.1 | 10.4 | 0.00 | 0.00 | 0.00 | 42 | 1013.3 |
| 20260504175602 | 61 | 42 | 7.0 | 12.2 | 0.00 | 0.00 | 0.00 | 44 | 1013.4 |
| 20260504175059 | 60 | 56 | 8.7 | 12.2 | 0.00 | 0.00 | 0.00 | 43 | 1013.3 |
| 20260504174554 | 61 | 65 | 7.0 | 11.3 | 0.00 | 0.00 | 0.00 | 42 | 1013.3 |
| 20260504174048 | 61 | 55 | 3.5 | 11.3 | 0.00 | 0.00 | 0.00 | 44 | 1013.3 |
| 20260504173542 | 62 | 73 | 1.7 | 5.2 | 0.00 | 0.00 | 0.00 | 43 | 1013.3 |
| 20260504173035 | 61 | 67 | 0.9 | 5.2 | 0.00 | 0.00 | 0.00 | 42 | 1013.3 |
| 20260504172533 | 62 | 76 | 1.7 | 7.0 | 0.00 | 0.00 | 0.00 | 44 | 1013.3 |
| 20260504172034 | 60 | 267 | 2.6 | 7.8 | 0.00 | 0.00 | 0.00 | 42 | 1013.3 |
| 20260504171535 | 60 | 271 | 1.7 | 7.8 | 0.00 | 0.00 | 0.00 | 41 | 1013.3 |
| 20260504171033 | 61 | 194 | 1.7 | 3.5 | 0.00 | 0.00 | 0.00 | 41 | 1013.3 |
| 20260504151033 | 57 | 100 | 6.1 | 11.3 | 0.00 | 0.00 | 0.00 | 47 | 1013.4 |
| 20260504150533 | 56 | 23 | 7.0 | 12.2 | 0.00 | 0.00 | 0.00 | 47 | 1013.3 |
| 20260504140532 | 55 | 89 | 10.4 | 18.2 | 0.00 | 0.00 | 0.00 | 48 | 1013.1 |
| 20260504130531 | 54 | 86 | 11.3 | 19.1 | 0.00 | 0.00 | 0.00 | 48 | 1012.7 |
| 20260504110525 | 56 | 78 | 13.9 | 19.1 | 0.00 | 0.00 | 0.00 | 45 | 1012.1 |
| 20260504100517 | 57 | 11 | 10.4 | 20.0 | 0.00 | 0.00 | 0.00 | 43 | 1011.9 |
| 20260504081504 | 60 | 62 | 7.8 | 19.1 | 0.00 | 0.00 | 0.00 | 45 | 1010.3 |
| 20260504081005 | 59 | 89 | 6.1 | 14.8 | 0.00 | 0.00 | 0.00 | 48 | 1010.0 |
| 20260504050444 | 55 | 30 | 0.0 | 0.0 | 0.00 | 0.00 | 0.00 | 62 | 1008.6 |
| 20260504045943 | 56 | 30 | 0.0 | 0.9 | 0.00 | 0.00 | 0.00 | 64 | 1008.5 |
| 20260504045443 | 56 | 30 | 0.0 | 0.9 | 0.00 | 0.00 | 0.00 | 64 | 1008.6 |
| 20260504044943 | 56 | 30 | 0.0 | 0.9 | 0.00 | 0.00 | 0.00 | 65 | 1008.5 |
| 20260504044439 | 57 | 30 | 0.0 | 0.0 | 0.00 | 0.00 | 0.00 | 65 | 1008.5 |
| 20260504043939 | 58 | 30 | 0.0 | 0.0 | 0.00 | 0.00 | 0.00 | 58 | 1008.5 |
| 20260504043444 | 58 | 30 | 0.0 | 0.0 | 0.00 | 0.00 | 0.00 | 55 | 1008.4 |
| 20260504042941 | 59 | 30 | 0.0 | 0.0 | 0.00 | 0.00 | 0.00 | 54 | 1008.4 |
| 20260504042442 | 59 | 30 | 0.0 | 0.9 | 0.00 | 0.00 | 0.00 | 53 | 1008.4 |
| 20260504041942 | 60 | 30 | 0.0 | 0.9 | 0.00 | 0.00 | 0.00 | 52 | 1008.4 |
| 20260504041440 | 60 | 30 | 0.0 | 0.9 | 0.00 | 0.00 | 0.00 | 56 | 1008.4 |
| 20260504040939 | 61 | 30 | 0.0 | 0.9 | 0.00 | 0.00 | 0.00 | 55 | 1008.4 |